Regional Weather Roundup
Issued by NWS

Home | Current Version | Previous Version | Graphics & Text | Print | Product List | Glossary Off
Versions: 1 2 3 4 5 6 7 8 9 10 11 12 13 14 15 16 17 18 19 20 21 22 23 24 25 26 27 28 29 30 31 32 33 34 35 36 37 38 39 40 41 42 43 44 45 46 47 48 49 50

000
ASUS43 KDTX 211301
RWRMI
MICHIGAN HOURLY REGIONAL WEATHER ROUNDUP
NATIONAL WEATHER SERVICE DETROIT/PONTIAC MI
900 AM EDT FRI JUL 21 2017

NOTE: "FAIR" INDICATES FEW OR NO CLOUDS BELOW 12,000 FEET WITH NO
SIGNIFICANT WEATHER AND/OR OBSTRUCTION TO VISIBILITY.

MIZ047>049-052>055-059>063-066>070-074>076-081>083-211400-
SOUTHEAST LOWER MICHIGAN

CITY           SKY/WX    TMP DP  RH WIND       PRES   REMARKS
ADRIAN         PTSUNNY   73  70  90 N3        30.03R
ALMA           CLOUDY    71  66  84 N7        30.02F
ANN ARBOR      CLOUDY    76  70  82 N3        30.01R
BAD AXE        SUNNY     70  66  86 N6        30.01S
CARO           CLOUDY    74  65  75 N6        30.01S
DETROIT CITY   CLOUDY    78  67  68 N7        30.00R
DETROIT        CLOUDY    78  69  73 NE7       30.00S
FLINT          CLOUDY    73  65  75 NE3       30.02R
GROSSE ILE     CLOUDY    77  69  76 N10       29.98S
HILLSDALE      CLOUDY    68  68 100 CALM      30.04R FOG
HOWELL         CLOUDY    71  67  86 CALM      30.02S

CITY           SKY/WX    TMP DP  RH WIND       PRES   REMARKS
JACKSON        CLOUDY    68  67  96 VRB3      30.03R
LAMBERTVILLE   PTSUNNY   73  70  91 CALM      30.00R
LANSING        CLOUDY    71  66  84 N3        30.03R
LAPEER         FAIR      72  67  82 CALM      30.02R
MASON          CLOUDY    70  69  98 N5        30.03R
MONROE         PTSUNNY   74  71  89 CALM      30.00R
MT. CLEMENS    PTSUNNY   76  69  79 N7        29.98R
PONTIAC        PTSUNNY   75  67  76 N6        30.01R
PORT HOPE        N/A     71  64  78 NW6       29.99S
PORT HURON     CLOUDY    75  68  78 N3        30.01R
TRI CITIES     MOSUNNY   73  65  75 N7        30.02S
MIDLAND        FAIR      70  65  82 CALM      30.01F
TROY           CLOUDY    77  65  68 NE6       30.02S
SAGINAW HB     MOSUNNY   72  64  78 NW6       30.01S
$$
MIZ043>046-050>051-056>058-064>065-071>073-077>080-211400-
SOUTHWEST LOWER MICHIGAN

CITY           SKY/WX    TMP DP  RH WIND       PRES   REMARKS
BATTLE CREEK   CLOUDY    70  68  93 CALM      30.04R
BENTON HARBOR  CLOUDY    73  69  87 SE3       30.01S FOG
BIG RAPIDS     MOSUNNY   66  65  94 CALM      30.01F
COLDWATER      CLOUDY    68  68 100 CALM      30.03S FOG
FREMONT        FAIR      69  69 100 CALM      30.00S
HOLLAND        FOG       68  67  96 E3        30.01S VSB 3/4
GRAND RAPIDS   PTSUNNY   70  68  93 S3        30.02S
IONIA          FAIR      71  68  90 CALM      30.02S
KALAMAZOO      CLOUDY    71  66  84 CALM      30.03S
LUDINGTON      CLOUDY    71  70  96 CALM      29.98F
MARSHALL       CLOUDY    69  68  98 CALM      30.03S
MOUNT PLEASANT CLOUDY    74  66  76 CALM      30.01F
MUSKEGON       CLOUDY    73  69  87 CALM      30.00S
SOUTH HAVEN    CLOUDY    71  71  99 S5        30.02R FOG
$$
MIZ016>042-211400-
NORTHERN LOWER MICHIGAN

CITY           SKY/WX    TMP DP  RH WIND       PRES   REMARKS
ALPENA         SUNNY     70  65  84 W5        30.00S
BEAVER ISLAND  SUNNY     71  69  94 W3        29.97F
BELLAIRE       SUNNY     69  63  81 CALM      29.98F
CADILLAC       CLOUDY    73  67  80 CALM      30.01F
CHARLEVOIX     SUNNY     70  67  92 SE5       30.01S
FRANKFORT      FOG       68  68 100 CALM      29.98F VSB 1
GAYLORD        SUNNY     69  59  70 SW3       30.01F
GRAYLING       SUNNY     69  62  78 CALM      30.02F
HARBOR SPRINGS SUNNY     68  66  94 CALM      29.99S
HOUGHTON LAKE  CLOUDY    71  65  81 SW3       30.03F
MANISTEE       CLOUDY    66  66 100 E5        29.98F
OSCODA         SUNNY     72  64  74 NW9       29.99F
PELLSTON       SUNNY     68  62  81 CALM      29.98F
ROGERS CITY    SUNNY     70  63  79 SW3       30.00S
TRAVERSE CITY  PTSUNNY   73  67  81 VRB3      29.97F
$$
MIZ007>008-015-211400-
EASTERN UPPER MICHIGAN

CITY           SKY/WX    TMP DP  RH WIND       PRES   REMARKS
KINROSS        SUNNY     65  61  87 W5        29.98R
MACKINAC ISLAN SUNNY     67  67 100 SW6       29.98R
NEWBERRY       SUNNY     66  65  96 SW3       29.96S
S. S. MARIE    SUNNY     68  62  81 CALM      29.96S
MUNISING         N/A     68  63  84 CALM      29.94F
$$
MIZ004>006-011>014-085-211400-
CENTRAL UPPER MICHIGAN

CITY           SKY/WX    TMP DP  RH WIND       PRES   REMARKS
MANISTIQUE     SUNNY     69  65  89 CALM      29.96F
ESCANABA       SUNNY     69  63  81 CALM      29.97R
MENOMINEE      SUNNY     71  66  84 CALM      29.97F
SAWYER-GWINN   SUNNY     63  59  88 CALM      29.97F
$$
MIZ001>003-009>011-084-211400-
WESTERN UPPER MICHIGAN

CITY           SKY/WX    TMP DP  RH WIND       PRES   REMARKS
IRON MOUNTAIN  SUNNY     68  60  75 CALM      29.97S
HOUGHTON       CLOUDY    67  59  75 CALM      29.94F
COPPER HARBOR    N/A     61  53  75 CALM      29.94R
IRONWOOD       CLOUDY    64  62  93 CALM      29.96R
$$

ABBREVIATIONS USED IN REMARKS
   TC - TEMPERATURE IN CELSIUS
  WCI - WIND CHILL INDEX
   HX - HEAT INDEX
  VSB - VISIBILITY




USA.gov is the U.S. government's official web portal to all federal, state and local government web resources and services.